KC7FQC Weather Reports


time (UTC)temp
C
wind
direction
speed
KPH
gust
KPH
rain 1hr
cm
rain 24hr
cm
rain mn
cm
humidity
%
barometer
mb
20200524225457 36 233 8.0 12.9 0.00 0.00 0.00 9 1004.5
20200524224957 35 223 0.0 11.3 0.00 0.00 0.00 9 1004.4
20200524224441 35 240 4.8 14.5 0.00 0.00 0.00 9 1004.5
20200524223942 35 223 0.0 14.5 0.00 0.00 0.00 9 1004.6
20200524223412 35 165 0.0 14.5 0.00 0.00 0.00 9 1004.6
20200524222942 35 134 1.6 14.5 0.00 0.00 0.00 10 1004.8
20200524222442 35 192 8.0 19.3 0.00 0.00 0.00 10 1004.8
20200524221957 35 144 8.0 19.3 0.00 0.00 0.00 9 1004.9
20200524221441 35 178 1.6 19.3 0.00 0.00 0.00 9 1005.1
20200524220942 35 150 8.0 19.3 0.00 0.00 0.00 9 1005.2
20200524220427 36 165 9.7 17.7 0.00 0.00 0.00 9 1005.5
20200524215941 36 220 16.1 17.7 0.00 0.00 0.00 9 1005.5
20200524215457 35 235 11.3 16.1 0.00 0.00 0.00 9 1005.6
20200524214957 36 205 16.1 16.1 0.00 0.00 0.00 9 1005.8
20200524214442 35 205 0.0 16.1 0.00 0.00 0.00 8 1005.8
20200524213942 36 173 8.0 16.1 0.00 0.00 0.00 8 1006.0
20200524213458 36 206 6.4 11.3 0.00 0.00 0.00 8 1005.8
20200524212942 36 190 8.0 11.3 0.00 0.00 0.00 8 1006.0
20200524212457 36 270 1.6 8.0 0.00 0.00 0.00 8 1006.1
20200524211957 36 270 1.6 9.7 0.00 0.00 0.00 7 1006.3
20200524211457 36 242 3.2 12.9 0.00 0.00 0.00 7 1006.3
20200524210911 36 248 0.0 12.9 0.00 0.00 0.00 8 1006.3
20200524210441 35 319 0.0 16.1 0.00 0.00 0.00 9 1006.4
20200524205941 35 317 3.2 16.1 0.00 0.00 0.00 9 1006.3
20200524205441 36 327 16.1 16.1 0.00 0.00 0.00 9 1006.5
20200524204957 36 323 8.0 17.7 0.00 0.00 0.00 9 1006.6
20200524204457 36 215 8.0 17.7 0.00 0.00 0.00 8 1006.6
20200524203941 36 237 3.2 16.1 0.00 0.00 0.00 8 1006.7
20200524203457 36 229 6.4 9.7 0.00 0.00 0.00 8 1006.7
20200524202941 36 205 0.0 9.7 0.00 0.00 0.00 9 1006.9
20200524202442 36 178 1.6 11.3 0.00 0.00 0.00 8 1006.8
20200524201941 36 265 1.6 16.1 0.00 0.00 0.00 8 1006.7
20200524201441 36 263 8.0 17.7 0.00 0.00 0.00 7 1006.9
20200524200957 36 217 11.3 17.7 0.00 0.00 0.00 7 1007.1
20200524200441 36 311 8.0 14.5 0.00 0.00 0.00 7 1007.1
20200524200011 36 246 1.6 16.1 0.00 0.00 0.00 8 1007.0
20200524195412 36 248 12.9 16.1 0.00 0.00 0.00 7 1007.2
20200524194942 36 215 3.2 14.5 0.00 0.00 0.00 7 1007.2
20200524194441 36 235 11.3 11.3 0.00 0.00 0.00 7 1007.5
20200524193911 36 239 9.7 17.7 0.00 0.00 0.00 6 1007.6
20200524193441 36 227 8.0 17.7 0.00 0.00 0.00 7 1007.7
20200524192957 36 252 6.4 11.3 0.00 0.00 0.00 7 1007.8
20200524192441 36 254 1.6 8.0 0.00 0.00 0.00 8 1007.9
20200524191941 36 257 3.2 9.7 0.00 0.00 0.00 8 1007.9
20200524191441 35 257 3.2 12.9 0.00 0.00 0.00 9 1008.0
20200524190941 35 259 4.8 12.9 0.00 0.00 0.00 9 1008.1
20200524190441 35 272 1.6 12.9 0.00 0.00 0.00 9 1008.2
20200524185957 35 198 1.6 12.9 0.00 0.00 0.00 9 1008.1
20200524185441 34 212 9.7 12.9 0.00 0.00 0.00 10 1008.4
20200524184941 35 203 8.0 9.7 0.00 0.00 0.00 10 1008.5
20200524184441 34 200 0.0 12.9 0.00 0.00 0.00 10 1008.4
20200524183941 33 186 0.0 12.9 0.00 0.00 0.00 12 1008.5
20200524183457 34 240 3.2 12.9 0.00 0.00 0.00 12 1008.5
20200524182942 33 240 0.0 12.9 0.00 0.00 0.00 13 1008.4
20200524182441 33 248 3.2 14.5 0.00 0.00 0.00 13 1008.4
20200524181941 33 249 9.7 14.5 0.00 0.00 0.00 13 1008.7
20200524181441 32 246 14.5 14.5 0.00 0.00 0.00 14 1008.7
20200524180957 33 206 3.2 12.9 0.00 0.00 0.00 13 1008.7
20200524180457 33 212 0.0 8.0 0.00 0.00 0.00 13 1008.7
20200524175957 33 208 1.6 11.3 0.00 0.00 0.00 14 1008.8
20200524175457 32 205 0.0 11.3 0.00 0.00 0.00 14 1008.8
20200524174941 32 200 0.0 11.3 0.00 0.00 0.00 14 1008.8
20200524174441 32 202 9.7 11.3 0.00 0.00 0.00 14 1008.9
20200524173941 32 205 3.2 11.3 0.00 0.00 0.00 15 1008.9
20200524173442 32 203 1.6 11.3 0.00 0.00 0.00 15 1008.7
20200524172957 32 200 11.3 11.3 0.00 0.00 0.00 15 1008.7
20200524172457 32 200 1.6 9.7 0.00 0.00 0.00 15 1008.7
20200524171957 31 198 0.0 9.7 0.00 0.00 0.00 15 1008.7
20200524171441 31 198 3.2 9.7 0.00 0.00 0.00 15 1008.9
20200524170911 31 198 1.6 8.0 0.00 0.00 0.00 15 1008.8
20200524170441 31 198 3.2 9.7 0.00 0.00 0.00 16 1009.0
20200524165957 31 198 0.0 11.3 0.00 0.00 0.00 16 1008.9
20200524165441 31 198 9.7 11.3 0.00 0.00 0.00 16 1008.8
20200524164941 31 198 0.0 6.4 0.00 0.00 0.00 16 1008.8
20200524164441 30 198 0.0 9.7 0.00 0.00 0.00 16 1008.9
20200524163941 30 198 1.6 9.7 0.00 0.00 0.00 16 1008.9
20200524163441 30 202 3.2 4.8 0.00 0.00 0.00 16 1008.8
20200524162941 29 202 3.2 6.4 0.00 0.00 0.00 17 1008.8
20200524162458 29 202 3.2 6.4 0.00 0.00 0.00 17 1008.8
20200524161941 28 202 0.0 6.4 0.00 0.00 0.00 17 1008.9
20200524161457 28 202 6.4 9.7 0.00 0.00 0.00 17 1008.9
20200524160941 28 203 6.4 11.3 0.00 0.00 0.00 17 1008.8
20200524160457 28 208 4.8 11.3 0.00 0.00 0.00 17 1008.9
20200524155941 28 208 1.6 11.3 0.00 0.00 0.00 17 1009.0
20200524155442 28 208 0.0 4.8 0.00 0.00 0.00 17 1008.9
20200524154941 28 208 0.0 11.3 0.00 0.00 0.00 17 1009.0
20200524154411 28 208 1.6 11.3 0.00 0.00 0.00 17 1009.0
20200524153957 28 211 0.0 8.0 0.00 0.00 0.00 17 1008.9
20200524153441 28 211 0.0 4.8 0.00 0.00 0.00 17 1009.0
20200524152957 28 211 1.6 4.8 0.00 0.00 0.00 17 1009.0
20200524152457 28 213 0.0 3.2 0.00 0.00 0.00 18 1008.9
20200524151941 27 213 0.0 3.2 0.00 0.00 0.00 18 1008.6
20200524151457 27 213 1.6 3.2 0.00 0.00 0.00 18 1008.6
20200524150941 27 213 0.0 4.8 0.00 0.00 0.00 18 1008.5
20200524150457 26 213 0.0 4.8 0.00 0.00 0.00 19 1008.3
20200524145941 27 213 0.0 4.8 0.00 0.00 0.00 18 1008.3
20200524145457 27 213 0.0 4.8 0.00 0.00 0.00 19 1008.3
20200524144941 26 213 0.0 0.0 0.00 0.00 0.00 19 1008.2
20200524144441 26 213 0.0 0.0 0.00 0.00 0.00 20 1008.1
20200524143957 25 213 0.0 1.6 0.00 0.00 0.00 20 1008.0
20200524143457 25 213 0.0 1.6 0.00 0.00 0.00 21 1007.9
20200524142941 24 213 0.0 0.0 0.00 0.00 0.00 21 1007.8
20200524142441 23 213 0.0 0.0 0.00 0.00 0.00 22 1007.6
20200524141956 23 213 0.0 4.8 0.00 0.00 0.00 25 1007.5
20200524141457 22 213 0.0 4.8 0.00 0.00 0.00 25 1007.5
20200524140941 22 213 1.6 4.8 0.00 0.00 0.00 26 1007.3
20200524140441 22 213 0.0 4.8 0.00 0.00 0.00 27 1007.2
20200524135956 21 213 1.6 4.8 0.00 0.00 0.00 28 1007.2
20200524135441 21 213 0.0 0.0 0.00 0.00 0.00 31 1007.4
20200524134941 21 213 0.0 0.0 0.00 0.00 0.00 31 1007.2
20200524134441 20 213 0.0 1.6 0.00 0.00 0.00 31 1007.2
20200524133941 20 213 0.0 1.6 0.00 0.00 0.00 31 1007.3
20200524133441 20 237 0.0 1.6 0.00 0.00 0.00 32 1007.1
20200524132957 20 237 0.0 0.0 0.00 0.00 0.00 32 1007.0
20200524132457 20 237 0.0 0.0 0.00 0.00 0.00 32 1007.1
20200524131941 19 237 0.0 0.0 0.00 0.00 0.00 32 1007.0
20200524131441 19 237 0.0 0.0 0.00 0.00 0.00 34 1007.0
20200524130956 19 237 0.0 0.0 0.00 0.00 0.00 33 1006.9
20200524130441 18 237 0.0 0.0 0.00 0.00 0.00 32 1006.8
20200524125941 18 237 0.0 0.0 0.00 0.00 0.00 32 1006.8
20200524125456 18 237 0.0 3.2 0.00 0.00 0.00 31 1006.7
20200524124941 18 237 0.0 3.2 0.00 0.00 0.00 30 1006.6
20200524124457 18 237 3.2 3.2 0.00 0.00 0.00 32 1006.6
20200524123957 18 237 0.0 3.2 0.00 0.00 0.00 31 1006.4
20200524123446 18 237 0.0 3.2 0.00 0.00 0.00 31 1006.3
20200524122941 18 237 0.0 3.2 0.00 0.00 0.00 30 1006.1
20200524122456 18 237 1.6 3.2 0.00 0.00 0.00 30 1006.0
20200524121941 19 237 0.0 0.0 0.00 0.00 0.00 30 1006.2
20200524121441 19 237 0.0 0.0 0.00 0.00 0.00 31 1006.2
20200524120945 19 237 0.0 0.0 0.00 0.00 0.00 31 1006.1
20200524120456 19 237 0.0 0.0 0.00 0.00 0.00 29 1006.1
20200524115957 19 237 0.0 0.0 0.00 0.00 0.00 29 1006.0
20200524115441 19 237 0.0 0.0 0.00 0.00 0.00 28 1006.0
20200524114941 19 237 0.0 0.0 0.00 0.00 0.00 29 1006.1
20200524114456 20 237 0.0 0.0 0.00 0.00 0.00 28 1006.2
20200524113956 20 237 0.0 0.0 0.00 0.00 0.00 29 1006.1
20200524113441 20 237 0.0 0.0 0.00 0.00 0.00 28 1006.0
20200524112956 20 237 0.0 0.0 0.00 0.00 0.00 28 1006.1
20200524112441 20 237 0.0 0.0 0.00 0.00 0.00 28 1006.0
20200524111956 20 237 0.0 0.0 0.00 0.00 0.00 28 1006.0
20200524111457 20 237 0.0 0.0 0.00 0.00 0.00 28 1005.9
20200524110941 20 237 0.0 0.0 0.00 0.00 0.00 28 1005.8
20200524110441 20 237 0.0 0.0 0.00 0.00 0.00 27 1005.8
20200524105941 20 237 0.0 0.0 0.00 0.00 0.00 28 1005.8
20200524105457 20 237 0.0 0.0 0.00 0.00 0.00 27 1005.9
20200524104941 21 237 0.0 0.0 0.00 0.00 0.00 27 1005.9
20200524104441 21 237 0.0 0.0 0.00 0.00 0.00 27 1005.9
20200524103941 21 237 0.0 0.0 0.00 0.00 0.00 26 1006.0
20200524103441 21 237 0.0 0.0 0.00 0.00 0.00 26 1006.1
20200524102941 21 237 0.0 0.0 0.00 0.00 0.00 26 1006.1
20200524102441 21 237 0.0 0.0 0.00 0.00 0.00 26 1005.9
20200524101941 21 237 0.0 0.0 0.00 0.00 0.00 26 1005.9
20200524101441 21 237 0.0 4.8 0.00 0.00 0.00 27 1005.9
20200524100941 21 237 0.0 4.8 0.00 0.00 0.00 26 1005.9
20200524100456 21 237 0.0 4.8 0.00 0.00 0.00 26 1005.7
20200524095941 21 237 1.6 9.7 0.00 0.00 0.00 26 1005.7
20200524095441 21 237 3.2 9.7 0.00 0.00 0.00 26 1005.7
20200524094956 21 237 4.8 6.4 0.00 0.00 0.00 26 1005.7
20200524094456 21 237 1.6 1.6 0.00 0.00 0.00 26 1005.6
20200524093941 21 237 0.0 1.6 0.00 0.00 0.00 26 1005.6
20200524093441 22 237 0.0 0.0 0.00 0.00 0.00 26 1005.5
20200524092941 22 237 0.0 0.0 0.00 0.00 0.00 26 1005.5
20200524092441 22 237 0.0 0.0 0.00 0.00 0.00 26 1005.6
20200524091941 22 237 0.0 0.0 0.00 0.00 0.00 25 1005.6
20200524091411 22 237 0.0 0.0 0.00 0.00 0.00 25 1005.8
20200524090956 22 237 0.0 0.0 0.00 0.00 0.00 26 1005.8
20200524090441 22 237 0.0 0.0 0.00 0.00 0.00 25 1005.6
20200524085956 22 237 0.0 3.2 0.00 0.00 0.00 25 1005.5
20200524085457 22 237 0.0 6.4 0.00 0.00 0.00 25 1005.5
20200524084941 22 237 3.2 6.4 0.00 0.00 0.00 25 1005.5
20200524084441 22 237 0.0 4.8 0.00 0.00 0.00 25 1005.6
20200524083941 22 237 3.2 4.8 0.00 0.00 0.00 25 1005.6
20200524083441 22 237 0.0 3.2 0.00 0.00 0.00 24 1005.6
20200524082911 23 237 0.0 3.2 0.00 0.00 0.00 24 1005.4
20200524082441 23 237 0.0 3.2 0.00 0.00 0.00 24 1005.4
20200524081941 23 237 0.0 1.6 0.00 0.00 0.00 24 1005.5
20200524081456 23 237 0.0 3.2 0.00 0.00 0.00 24 1005.6
20200524080956 23 237 0.0 3.2 0.00 0.00 0.00 24 1005.6
20200524080456 23 237 0.0 3.2 0.00 0.00 0.00 24 1005.5
20200524075956 24 237 0.0 1.6 0.00 0.00 0.00 23 1005.6
20200524075441 24 237 0.0 0.0 0.00 0.00 0.00 23 1005.6
20200524074956 24 237 0.0 0.0 0.00 0.00 0.00 23 1005.7
20200524074456 24 237 0.0 3.2 0.00 0.00 0.00 22 1005.6
20200524073941 25 237 0.0 4.8 0.00 0.00 0.00 22 1005.6
20200524073441 25 237 0.0 4.8 0.00 0.00 0.00 22 1005.6
20200524072956 25 237 0.0 0.0 0.00 0.00 0.00 21 1005.5
20200524072441 25 237 0.0 0.0 0.00 0.00 0.00 21 1005.7
20200524071956 25 237 0.0 0.0 0.00 0.00 0.00 20 1005.8
20200524071456 25 237 0.0 0.0 0.00 0.00 0.00 20 1005.7
20200524070941 25 237 0.0 1.6 0.00 0.00 0.00 20 1005.7
20200524070456 26 237 0.0 6.4 0.00 0.00 0.00 20 1005.7
20200524065956 26 237 0.0 6.4 0.00 0.00 0.00 19 1005.7
20200524065457 26 237 1.6 4.8 0.00 0.00 0.00 19 1005.6
20200524064941 26 237 1.6 6.4 0.00 0.00 0.00 19 1005.6
20200524064441 26 237 3.2 6.4 0.00 0.00 0.00 18 1005.6
20200524063941 26 237 1.6 4.8 0.00 0.00 0.00 18 1005.6
20200524063456 27 237 1.6 4.8 0.00 0.00 0.00 18 1005.6
20200524062941 27 237 0.0 6.4 0.00 0.00 0.00 17 1005.6
20200524062440 27 237 0.0 6.4 0.00 0.00 0.00 17 1005.6
20200524061942 27 237 1.6 6.4 0.00 0.00 0.00 17 1005.6
20200524061456 27 237 1.6 6.4 0.00 0.00 0.00 16 1005.6
20200524060956 27 237 3.2 8.0 0.00 0.00 0.00 16 1005.7
20200524060440 27 237 1.6 9.7 0.00 0.00 0.00 16 1005.7
20200524055941 27 237 6.4 12.9 0.00 0.00 0.00 16 1005.8
20200524055456 27 237 4.8 17.7 0.00 0.00 0.00 15 1005.5
20200524054956 27 225 12.9 17.7 0.00 0.00 0.00 15 1005.5
20200524054440 27 227 6.4 14.5 0.00 0.00 0.00 15 1005.5
20200524053941 28 229 4.8 9.7 0.00 0.00 0.00 14 1005.7
20200524053456 28 228 1.6 8.0 0.00 0.00 0.00 14 1005.8
20200524052941 28 228 1.6 9.7 0.00 0.00 0.00 14 1005.9
20200524052441 28 228 3.2 9.7 0.00 0.00 0.00 14 1005.8
20200524051940 28 227 9.7 9.7 0.00 0.00 0.00 13 1005.7
20200524051441 28 227 3.2 9.7 0.00 0.00 0.00 13 1005.7
20200524050957 28 225 3.2 11.3 0.00 0.00 0.00 13 1005.7
20200524050440 28 225 4.8 11.3 0.00 0.00 0.00 13 1005.6
20200524045941 28 225 4.8 11.3 0.00 0.00 0.00 13 1005.6
20200524045457 28 225 3.2 11.3 0.00 0.00 0.00 13 1005.6
20200524044941 28 231 6.4 9.7 0.00 0.00 0.00 12 1005.4
20200524044457 28 230 4.8 6.4 0.00 0.00 0.00 12 1005.4
20200524043941 29 230 3.2 8.0 0.00 0.00 0.00 12 1005.3
20200524043440 29 230 3.2 9.7 0.00 0.00 0.00 12 1005.3
20200524042941 29 229 3.2 9.7 0.00 0.00 0.00 12 1005.2
20200524042440 29 230 4.8 9.7 0.00 0.00 0.00 11 1005.1
20200524041940 29 230 3.2 11.3 0.00 0.00 0.00 11 1005.1
20200524041441 29 230 4.8 11.3 0.00 0.00 0.00 11 1005.0
20200524040956 29 229 4.8 9.7 0.00 0.00 0.00 11 1005.0
20200524040456 29 229 4.8 9.7 0.00 0.00 0.00 11 1005.1
20200524035941 29 229 4.8 11.3 0.00 0.00 0.00 11 1004.9
20200524035440 29 229 3.2 11.3 0.00 0.00 0.00 11 1004.7
20200524034940 29 229 6.4 11.3 0.00 0.00 0.00 11 1004.8
20200524034440 30 227 6.4 9.7 0.00 0.00 0.00 11 1004.8
20200524033956 30 227 9.7 14.5 0.00 0.00 0.00 11 1004.7
20200524033456 30 226 6.4 14.5 0.00 0.00 0.00 11 1004.6
20200524032940 30 223 6.4 11.3 0.00 0.00 0.00 11 1004.6
20200524032440 30 223 11.3 14.5 0.00 0.00 0.00 11 1004.6
20200524031940 30 222 6.4 14.5 0.00 0.00 0.00 11 1004.7
20200524031440 30 219 6.4 14.5 0.00 0.00 0.00 11 1004.6
20200524030940 30 219 6.4 14.5 0.00 0.00 0.00 11 1004.5
20200524030456 30 221 1.6 12.9 0.00 0.00 0.00 11 1004.5
20200524025956 30 221 8.0 17.7 0.00 0.00 0.00 11 1004.4
20200524025440 30 217 6.4 17.7 0.00 0.00 0.00 10 1004.3
20200524024956 30 218 8.0 14.5 0.00 0.00 0.00 10 1004.2
20200524024441 31 212 3.2 11.3 0.00 0.00 0.00 10 1004.2
20200524023940 31 212 6.4 11.3 0.00 0.00 0.00 10 1004.0
20200524023456 31 212 6.4 14.5 0.00 0.00 0.00 10 1003.9
20200524022956 31 224 4.8 16.1 0.00 0.00 0.00 10 1003.9
20200524022456 31 217 8.0 17.7 0.00 0.00 0.00 10 1004.0
20200524021940 31 213 8.0 17.7 0.00 0.00 0.00 10 1003.9
20200524021440 31 202 8.0 12.9 0.00 0.00 0.00 10 1003.8
20200524020956 31 220 4.8 16.1 0.00 0.00 0.00 9 1003.8
20200524020441 31 224 9.7 16.1 0.00 0.00 0.00 9 1003.8
20200524015956 31 225 11.3 16.1 0.00 0.00 0.00 9 1003.8
20200524015440 32 254 12.9 16.1 0.00 0.00 0.00 10 1003.8
20200524014956 32 223 11.3 17.7 0.00 0.00 0.00 10 1003.7
20200524014440 32 227 9.7 17.7 0.00 0.00 0.00 10 1003.7
20200524013940 32 360 14.5 17.7 0.00 0.00 0.00 10 1003.7
20200524013456 32 236 12.9 14.5 0.00 0.00 0.00 10 1003.7
20200524012940 32 233 11.3 17.7 0.00 0.00 0.00 10 1003.5
20200524012440 32 237 11.3 17.7 0.00 0.00 0.00 10 1003.5
20200524011940 32 211 14.5 19.3 0.00 0.00 0.00 11 1003.5
20200524011441 32 225 9.7 20.9 0.00 0.00 0.00 11 1003.5
20200524010956 32 251 16.1 20.9 0.00 0.00 0.00 11 1003.5
20200524010456 32 208 6.4 11.3 0.00 0.00 0.00 11 1003.6
20200524005956 32 207 1.6 17.7 0.00 0.00 0.00 11 1003.6
20200524005457 33 208 9.7 17.7 0.00 0.00 0.00 11 1003.5
20200524004941 33 210 1.6 17.7 0.00 0.00 0.00 11 1003.4
20200524004440 33 244 9.7 20.9 0.00 0.00 0.00 10 1003.5
20200524003940 33 207 4.8 20.9 0.00 0.00 0.00 11 1003.5
20200524003440 33 207 6.4 22.5 0.00 0.00 0.00 11 1003.5
20200524002956 33 213 3.2 22.5 0.00 0.00 0.00 11 1003.5
20200524002440 33 236 4.8 19.3 0.00 0.00 0.00 11 1003.6
20200524001956 33 233 11.3 19.3 0.00 0.00 0.00 11 1003.6
20200524001440 33 223 4.8 14.5 0.00 0.00 0.00 12 1003.6
20200524000956 33 229 9.7 16.1 0.00 0.00 0.00 11 1003.6
20200524000440 33 235 4.8 17.7 0.00 0.00 0.00 11 1003.7
20200523235940 33 239 8.0 17.7 0.00 0.00 0.00 10 1003.7
20200523235440 33 234 9.7 17.7 0.00 0.00 0.00 11 1003.8
20200523234941 33 225 8.0 17.7 0.00 0.00 0.00 11 1003.9
20200523234440 33 232 4.8 20.9 0.00 0.00 0.00 11 1003.9
20200523233955 33 248 11.3 20.9 0.00 0.00 0.00 11 1003.9
20200523233455 33 242 17.7 20.9 0.00 0.00 0.00 10 1003.9
20200523232940 34 237 6.4 20.9 0.00 0.00 0.00 10 1004.0
20200523232441 34 246 6.4 17.7 0.00 0.00 0.00 11 1003.9
20200523231940 34 267 11.3 19.3 0.00 0.00 0.00 10 1004.0
20200523231456 34 242 11.3 19.3 0.00 0.00 0.00 10 1004.0
20200523230940 34 196 14.5 17.7 0.00 0.00 0.00 10 1004.0
20200523230456 34 241 4.8 22.5 0.00 0.00 0.00 11 1004.0
20200523225956 34 246 4.8 22.5 0.00 0.00 0.00 11 1004.0